UAE79Y EGPH-EGLL

Flight info

Callsign UAE79Y
Flight time 0h 52m
Altitude 25000
Route GOSAM DCT FENIK L612 ELBUS/N0489F330 UL612 LAKEY DCT NUGRA
Aircraft A359/H-SDE2E3GHIJ3J4J5LM1ORWXY/LB1D1

Departure

Time 2026-04-20 16:32
Airport Edinburgh Airport (EGPH)

Arrival

Time 2026-04-20 17:24
Airport London Heathrow Airport (EGLL)
Time Latitude Longitude Altitude Speed Heading
2026-04-20 16:04 55.95024 -3.36050 118 ft 0 kts 248°
2026-04-20 16:24 55.95029 -3.36028 118 ft 4 kts 248°
2026-04-20 16:24 55.95039 -3.35984 118 ft 4 kts 248°
2026-04-20 16:24 55.95047 -3.35949 118 ft 4 kts 249°
2026-04-20 16:24 55.95054 -3.35903 118 ft 4 kts 265°
2026-04-20 16:25 55.95052 -3.35858 118 ft 3 kts 297°
2026-04-20 16:25 55.95056 -3.35872 118 ft 4 kts 298°
2026-04-20 16:25 55.95063 -3.35893 118 ft 0 kts 298°
2026-04-20 16:27 55.95068 -3.35909 118 ft 4 kts 298°
2026-04-20 16:28 55.95088 -3.35983 117 ft 10 kts 292°
2026-04-20 16:28 55.95118 -3.36127 118 ft 15 kts 289°
2026-04-20 16:28 55.95120 -3.36325 117 ft 18 kts 239°
2026-04-20 16:28 55.95048 -3.36536 118 ft 22 kts 239°
2026-04-20 16:29 55.94964 -3.36787 119 ft 24 kts 239°
2026-04-20 16:29 55.94882 -3.37030 117 ft 25 kts 239°
2026-04-20 16:29 55.94790 -3.37294 120 ft 16 kts 239°
2026-04-20 16:29 55.94729 -3.37477 117 ft 19 kts 239°
2026-04-20 16:30 55.94654 -3.37701 118 ft 23 kts 238°
2026-04-20 16:30 55.94565 -3.37961 117 ft 27 kts 238°
2026-04-20 16:30 55.94464 -3.38264 117 ft 30 kts 238°
2026-04-20 16:30 55.94359 -3.38569 117 ft 26 kts 239°
2026-04-20 16:31 55.94287 -3.38823 122 ft 15 kts 278°
2026-04-20 16:31 55.94370 -3.38958 116 ft 18 kts 334°
2026-04-20 16:31 55.94459 -3.38848 116 ft 18 kts 59°
2026-04-20 16:31 55.94536 -3.38615 115 ft 34 kts 59°
2026-04-20 16:32 55.94839 -3.37725 116 ft 136 kts 59°
2026-04-20 16:32 55.95447 -3.35954 690 ft 182 kts 58°
2026-04-20 16:32 55.96188 -3.34105 1581 ft 188 kts 52°
2026-04-20 16:32 55.97203 -3.32408 2002 ft 212 kts 39°
2026-04-20 16:33 55.98622 -3.31263 2431 ft 239 kts 11°
2026-04-20 16:33 56.00263 -3.31797 3238 ft 249 kts 335°
2026-04-20 16:33 56.01508 -3.33957 3954 ft 259 kts 302°
2026-04-20 16:33 56.02275 -3.36880 4804 ft 262 kts 287°
2026-04-20 16:34 56.02494 -3.39050 5369 ft 264 kts 272°
2026-04-20 16:34 56.02118 -3.43382 6373 ft 270 kts 253°
2026-04-20 16:34 56.01611 -3.46610 7252 ft 270 kts 253°
2026-04-20 16:34 56.01267 -3.48810 7765 ft 274 kts 253°
2026-04-20 16:35 56.00539 -3.51924 8506 ft 277 kts 238°
2026-04-20 16:35 55.99297 -3.54548 9287 ft 279 kts 220°
2026-04-20 16:35 55.97769 -3.56726 10044 ft 283 kts 213°
2026-04-20 16:35 55.96097 -3.58661 10695 ft 292 kts 208°
2026-04-20 16:36 55.94288 -3.60538 11052 ft 309 kts 207°
2026-04-20 16:36 55.92360 -3.62469 11383 ft 326 kts 208°
2026-04-20 16:36 55.90341 -3.64511 11787 ft 339 kts 208°
2026-04-20 16:36 55.88273 -3.66651 12399 ft 346 kts 208°
2026-04-20 16:37 55.86190 -3.68842 13066 ft 350 kts 208°
2026-04-20 16:37 55.84094 -3.71069 13726 ft 353 kts 210°
2026-04-20 16:37 55.81977 -3.73335 14388 ft 357 kts 210°
2026-04-20 16:37 55.79843 -3.75621 14983 ft 360 kts 209°
2026-04-20 16:38 55.77683 -3.77927 15594 ft 363 kts 210°
2026-04-20 16:38 55.75509 -3.80246 16192 ft 366 kts 209°
2026-04-20 16:38 55.73314 -3.82582 16796 ft 369 kts 209°
2026-04-20 16:38 55.71055 -3.84677 17379 ft 372 kts 201°
2026-04-20 16:39 55.68552 -3.85872 17930 ft 375 kts 186°
2026-04-20 16:39 55.65916 -3.85703 18538 ft 376 kts 169°
2026-04-20 16:39 55.63391 -3.84658 19032 ft 379 kts 163°
2026-04-20 16:39 55.60875 -3.83178 19557 ft 381 kts 160°
2026-04-20 16:40 55.58388 -3.81505 20069 ft 385 kts 158°
2026-04-20 16:40 55.55882 -3.79760 20551 ft 387 kts 158°
2026-04-20 16:40 55.53364 -3.78024 21054 ft 391 kts 159°
2026-04-20 16:40 55.50808 -3.76306 21552 ft 393 kts 160°
2026-04-20 16:41 55.48237 -3.74623 22046 ft 396 kts 160°
2026-04-20 16:41 55.45629 -3.72946 22476 ft 400 kts 161°
2026-04-20 16:41 55.42976 -3.71262 22760 ft 408 kts 161°
2026-04-20 16:41 55.40290 -3.69564 23179 ft 412 kts 161°
2026-04-20 16:42 55.37579 -3.67856 23653 ft 415 kts 161°
2026-04-20 16:42 55.34858 -3.66143 24114 ft 417 kts 161°
2026-04-20 16:42 55.32105 -3.64409 24420 ft 422 kts 161°
2026-04-20 16:42 55.29324 -3.62662 24823 ft 425 kts 161°
2026-04-20 16:43 55.26533 -3.60909 25192 ft 426 kts 161°
2026-04-20 16:43 55.23753 -3.59162 25298 ft 437 kts 161°
2026-04-20 16:43 55.20844 -3.57340 25295 ft 447 kts 161°
2026-04-20 16:43 55.17898 -3.55495 25305 ft 450 kts 161°
2026-04-20 16:44 55.14936 -3.53641 25309 ft 452 kts 161°
2026-04-20 16:44 55.11976 -3.51793 25306 ft 452 kts 161°
2026-04-20 16:44 55.09008 -3.49942 25309 ft 452 kts 161°
2026-04-20 16:44 55.06046 -3.48099 25308 ft 452 kts 161°
2026-04-20 16:45 55.03078 -3.46256 25309 ft 452 kts 161°
2026-04-20 16:45 55.00111 -3.44416 25305 ft 452 kts 161°
2026-04-20 16:45 54.97181 -3.42603 25306 ft 452 kts 161°
2026-04-20 16:45 54.94180 -3.40748 25303 ft 453 kts 161°
2026-04-20 16:46 54.91237 -3.38932 25307 ft 455 kts 161°
2026-04-20 16:46 54.88254 -3.37093 25306 ft 456 kts 161°
2026-04-20 16:46 54.85254 -3.35248 25305 ft 456 kts 161°
2026-04-20 16:46 54.82263 -3.33411 25295 ft 456 kts 161°
2026-04-20 16:47 54.79270 -3.31575 25299 ft 456 kts 161°
2026-04-20 16:47 54.76279 -3.29744 25297 ft 456 kts 161°
2026-04-20 16:47 54.73281 -3.27910 25308 ft 456 kts 161°
2026-04-20 16:47 54.70290 -3.26084 25730 ft 453 kts 161°
2026-04-20 16:48 54.67369 -3.24304 26690 ft 448 kts 161°
2026-04-20 16:48 54.64424 -3.22512 27581 ft 446 kts 161°
2026-04-20 16:48 54.61489 -3.20730 28283 ft 449 kts 161°
2026-04-20 16:48 54.58528 -3.18934 28814 ft 455 kts 161°
2026-04-20 16:49 54.55502 -3.17103 29168 ft 465 kts 161°
2026-04-20 16:49 54.52419 -3.15239 29467 ft 475 kts 161°
2026-04-20 16:49 54.49266 -3.13335 29769 ft 484 kts 161°
2026-04-20 16:49 54.46059 -3.11402 30146 ft 491 kts 161°
2026-04-20 16:50 54.42816 -3.09450 30618 ft 495 kts 161°
2026-04-20 16:50 54.39601 -3.07517 31161 ft 495 kts 161°
2026-04-20 16:50 54.36350 -3.05566 31727 ft 495 kts 161°
2026-04-20 16:50 54.33085 -3.03611 32280 ft 495 kts 161°
2026-04-20 16:51 54.29825 -3.01661 32822 ft 495 kts 161°
2026-04-20 16:51 54.26567 -2.99717 33206 ft 498 kts 162°
2026-04-20 16:51 54.20013 -2.95871 33298 ft 497 kts 163°
2026-04-20 16:52 54.13435 -2.92110 33303 ft 499 kts 163°
2026-04-20 16:52 54.06886 -2.88363 33298 ft 499 kts 163°
2026-04-20 16:53 54.00301 -2.84602 33295 ft 499 kts 163°
2026-04-20 16:53 53.93715 -2.80850 33297 ft 499 kts 163°
2026-04-20 16:54 53.87117 -2.77104 33288 ft 500 kts 163°
2026-04-20 16:54 53.80505 -2.73361 33283 ft 500 kts 163°
2026-04-20 16:55 53.73945 -2.69661 33283 ft 500 kts 163°
2026-04-20 16:55 53.67334 -2.65942 33285 ft 501 kts 164°
2026-04-20 16:56 53.60704 -2.62228 33283 ft 501 kts 164°
2026-04-20 16:56 53.54080 -2.58528 33300 ft 501 kts 164°
2026-04-20 16:57 53.47489 -2.54859 33279 ft 501 kts 163°
2026-04-20 16:57 53.40878 -2.51191 33290 ft 501 kts 163°
2026-04-20 16:58 53.34264 -2.47533 33286 ft 501 kts 164°
2026-04-20 16:58 53.27642 -2.43882 33289 ft 501 kts 164°
2026-04-20 16:59 53.21017 -2.40242 33290 ft 501 kts 164°
2026-04-20 16:59 53.14396 -2.36616 33287 ft 502 kts 164°
2026-04-20 17:00 53.04446 -2.31156 33279 ft 503 kts 162°
2026-04-20 17:00 53.01324 -2.28680 33283 ft 506 kts 151°
2026-04-20 17:01 52.98329 -2.25605 33252 ft 506 kts 149°
2026-04-20 17:01 52.92359 -2.19289 33278 ft 510 kts 150°
2026-04-20 17:02 52.86360 -2.12995 33279 ft 510 kts 150°
2026-04-20 17:02 52.80350 -2.06728 33097 ft 517 kts 150°
2026-04-20 17:02 52.77273 -2.03532 32847 ft 526 kts 150°
2026-04-20 17:03 52.74161 -2.00304 32575 ft 528 kts 150°
2026-04-20 17:03 52.71036 -1.97067 32194 ft 528 kts 150°
2026-04-20 17:03 52.67923 -1.93846 31267 ft 530 kts 151°
2026-04-20 17:03 52.64789 -1.90611 30257 ft 533 kts 151°
2026-04-20 17:04 52.61653 -1.87380 29448 ft 529 kts 151°
2026-04-20 17:04 52.58555 -1.84192 28778 ft 522 kts 151°
2026-04-20 17:04 52.55496 -1.81048 28094 ft 515 kts 151°
2026-04-20 17:04 52.52472 -1.77949 27392 ft 510 kts 151°
2026-04-20 17:05 52.49473 -1.74878 26723 ft 505 kts 152°
2026-04-20 17:05 52.46533 -1.71874 26080 ft 501 kts 152°
2026-04-20 17:05 52.43581 -1.68864 25406 ft 497 kts 152°
2026-04-20 17:05 52.40653 -1.65883 24741 ft 493 kts 151°
2026-04-20 17:06 52.37755 -1.62936 24085 ft 489 kts 151°
2026-04-20 17:06 52.34865 -1.60002 23360 ft 485 kts 151°
2026-04-20 17:06 52.32021 -1.57120 22667 ft 478 kts 151°
2026-04-20 17:06 52.29212 -1.54277 22035 ft 472 kts 150°
2026-04-20 17:07 52.26434 -1.51470 21377 ft 465 kts 151°
2026-04-20 17:07 52.23701 -1.48712 20742 ft 459 kts 150°
2026-04-20 17:07 52.21074 -1.45790 20122 ft 454 kts 142°
2026-04-20 17:07 52.18701 -1.42564 19707 ft 445 kts 140°
2026-04-20 17:08 52.16358 -1.39277 19274 ft 442 kts 140°
2026-04-20 17:08 52.14038 -1.36024 18824 ft 438 kts 140°
2026-04-20 17:08 52.11736 -1.32806 18351 ft 433 kts 139°
2026-04-20 17:08 52.09469 -1.29643 17895 ft 429 kts 139°
2026-04-20 17:09 52.07207 -1.26495 17450 ft 425 kts 140°
2026-04-20 17:09 52.04965 -1.23380 17028 ft 422 kts 140°
2026-04-20 17:09 52.02734 -1.20287 16548 ft 420 kts 140°
2026-04-20 17:09 52.00514 -1.17212 16123 ft 418 kts 140°
2026-04-20 17:10 51.98307 -1.14160 15698 ft 415 kts 140°
2026-04-20 17:10 51.96117 -1.11135 15351 ft 412 kts 140°
2026-04-20 17:10 51.93964 -1.08165 15185 ft 408 kts 140°
2026-04-20 17:10 51.91841 -1.05241 14836 ft 388 kts 140°
2026-04-20 17:11 51.89853 -1.02506 14395 ft 362 kts 140°
2026-04-20 17:11 51.87995 -0.99952 13980 ft 339 kts 140°
2026-04-20 17:11 51.86253 -0.97551 13579 ft 319 kts 139°
2026-04-20 17:11 51.84885 -0.94905 13200 ft 299 kts 118°
2026-04-20 17:12 51.83935 -0.91974 12689 ft 288 kts 114°
2026-04-20 17:12 51.83072 -0.89099 12118 ft 281 kts 114°
2026-04-20 17:12 51.82222 -0.86264 11545 ft 277 kts 114°
2026-04-20 17:12 51.81389 -0.83512 11028 ft 269 kts 113°
2026-04-20 17:13 51.80586 -0.80874 10629 ft 261 kts 114°
2026-04-20 17:13 51.79771 -0.78203 10300 ft 264 kts 113°
2026-04-20 17:13 51.78959 -0.75547 9937 ft 264 kts 114°
2026-04-20 17:13 51.78145 -0.72900 9563 ft 262 kts 113°
2026-04-20 17:14 51.77333 -0.70319 9248 ft 259 kts 116°
2026-04-20 17:14 51.76136 -0.68181 8919 ft 257 kts 144°
2026-04-20 17:14 51.74475 -0.67156 8288 ft 259 kts 172°
2026-04-20 17:14 51.72700 -0.67022 7776 ft 252 kts 179°
2026-04-20 17:15 51.70960 -0.67072 7377 ft 250 kts 180°
2026-04-20 17:15 51.69194 -0.67168 7268 ft 254 kts 181°
2026-04-20 17:15 51.67431 -0.67429 7246 ft 254 kts 193°
2026-04-20 17:15 51.65799 -0.68512 6927 ft 255 kts 208°
2026-04-20 17:16 51.64254 -0.69929 6355 ft 252 kts 210°
2026-04-20 17:16 51.62765 -0.71366 5793 ft 248 kts 211°
2026-04-20 17:16 51.61290 -0.72812 5169 ft 249 kts 211°
2026-04-20 17:16 51.59816 -0.74269 4596 ft 247 kts 211°
2026-04-20 17:17 51.58850 -0.75224 4246 ft 246 kts 211°
2026-04-20 17:17 51.56917 -0.77143 3982 ft 246 kts 211°
2026-04-20 17:17 51.55936 -0.78124 3978 ft 246 kts 211°
2026-04-20 17:17 51.54491 -0.79569 4003 ft 244 kts 210°
2026-04-20 17:18 51.53051 -0.80983 3874 ft 239 kts 207°
2026-04-20 17:18 51.51505 -0.81759 3437 ft 227 kts 185°
2026-04-20 17:18 51.50012 -0.81895 3100 ft 203 kts 168°
2026-04-20 17:18 51.48842 -0.80962 3012 ft 184 kts 129°
2026-04-20 17:19 51.48196 -0.79250 2994 ft 178 kts 108°
2026-04-20 17:19 51.47749 -0.77399 2980 ft 177 kts 104°
2026-04-20 17:19 51.47589 -0.75470 2997 ft 173 kts 88°
2026-04-20 17:19 51.47580 -0.73541 2990 ft 173 kts 87°
2026-04-20 17:20 51.47587 -0.71630 2972 ft 173 kts 86°
2026-04-20 17:20 51.47598 -0.69704 2787 ft 171 kts 86°
2026-04-20 17:20 51.47606 -0.67805 2540 ft 171 kts 86°
2026-04-20 17:20 51.47619 -0.65885 2298 ft 172 kts 86°
2026-04-20 17:21 51.47631 -0.64004 2070 ft 170 kts 86°
2026-04-20 17:21 51.47642 -0.62154 1824 ft 159 kts 86°
2026-04-20 17:21 51.47651 -0.60463 1600 ft 144 kts 85°
2026-04-20 17:21 51.47661 -0.58929 1416 ft 133 kts 84°
2026-04-20 17:22 51.47672 -0.57475 1251 ft 129 kts 85°
2026-04-20 17:22 51.47682 -0.56047 1071 ft 127 kts 85°
2026-04-20 17:22 51.47691 -0.54656 874 ft 124 kts 85°
2026-04-20 17:22 51.47700 -0.53285 711 ft 123 kts 86°
2026-04-20 17:23 51.47709 -0.51888 587 ft 127 kts 86°
2026-04-20 17:23 51.47738 -0.50458 377 ft 128 kts 88°
2026-04-20 17:23 51.47752 -0.49056 200 ft 125 kts 90°
2026-04-20 17:23 51.47759 -0.47654 96 ft 126 kts 89°
2026-04-20 17:24 51.47762 -0.46348 94 ft 94 kts 91°
2026-04-20 17:24 51.47763 -0.45501 95 ft 53 kts 90°
2026-04-20 17:24 51.47693 -0.45188 97 ft 22 kts 163°
2026-04-20 17:24 51.47543 -0.45165 96 ft 8 kts 152°